全球星 M025星 (GLOBALSTAR M025)

导读

GLOBALSTAR M025是美国全球星系统的第一代低轨移动通信卫星,于1999年6月10日发射。该卫星基于劳拉公司LS-400平台建造,采用三轴稳定设计,运行在高度约1414千米、倾角52°的轨道上。 作为全球星星座组成部分,它配备透明转发器,支持16个用户点波束,可提供数字语音、数据、传真及漫游服务,为偏远地区、海洋等无地面网络区域补充通信覆盖,设计寿命7.5年。

Basic Information
目录编号:
25770
目录名称:
GLOBALSTAR M025
国际标识:
1999-031A
轨道中心:
EARTH
卫星名称:
全球星 M025星
卫星全名:
全球星 M025星 (GLOBALSTAR M025)
卫星状态:
在轨 (已飞行9869 天)
发射日期:
1999-06-10 UTC
国别 :
(GLOB)
星等 :
--
Orbit Information
数据来源 国际轨道数据 AOE轨道数据
星历时间 2026-06-17T06:22:54+0800
9小时前
查看轨道信息
2026-06-15T00:00:00+0800
2天前
查看轨道信息
半长轴 8425.488km 8425.487km
偏心率 0.0002864 0.000285
轨道倾角 51.984° 51.984°
近地点辐角 33.254° 29.114°
升交点赤经 34.306° 39.556°
平近点角 339.310° 182.631°
近地点 2044.937km 2044.948km
远地点 2049.765km 2049.752km
周期 128.278分钟 128.278分钟
每日圈数 11.225617 11.225618
Detailed Information
固有亮度:
5
最大亮度:
7.9
平衡模式:
三轴稳定
覆盖范围:
全球
运营商:
全球星公司
运营商所在国:
美国
使用方式:
暂无
Satellite Introduction
全球星星座由48颗卫星加8颗备份星组成。这些卫星分布在8个倾角为52度的圆形轨道平面上,每个轨道平面6颗卫星,另有1 颗备用星。轨道高度约为1414km,传输时延和处理时延小于300ms,整个系统的覆盖区为南北纬70度以内的地区。该卫星仍在工作。
2D Orbit Map
3D Orbit Map
Orbit Altitude Analysis Chart
Orbit Inclination Analysis Chart
Orbit Comprehensive Analysis Chart
View Comprehensive Chart